Location: ?????????
(38.5999°N, 22.7695°E)
Time: 12:51:42
(UTC+00:00)

Lacrosse 5 rocket - Pass Details

Date: 23 May 2024
Orbit: 446 x 572 km, 57.0° (Epoch: 12 June)

Event Time Altitude Azimuth Distance (km) Brightness Sun altitude
Rises 01:23:48 0° 314° (NW) 2,693 4.9 -17.5°
Reaches altitude 10° 01:26:05 10° 310° (NW) 1,777 3.9 -17.2°
Maximum altitude 01:30:01 58° 232° (SW) 600 1.1 -16.7°
Drops below altitude 10° 01:33:46 10° 152° (SSE) 1,688 3.6 -16.2°
Sets 01:35:54 0° 148° (SSE) 2,543 4.6 -15.9°
